Time,TemperatureF,DewpointF,PressureIn,WindDirection,WindDirectionDegrees,WindSpeedMPH,WindSpeedGustMPH,Humidity,HourlyPrecipIn,Conditions,Clouds,dailyrainin,SoftwareType,DateUTC
2013-03-03 00:00:00,30.5,24.8,30.18,NW,304,7.0,-999.0,81,0.00,,,0.00,Haskell-WGSend-v0.01,2013-03-03 06:00:00,
2013-03-03 00:05:00,30.5,24.8,30.19,NW,320,2.0,-999.0,81,0.00,,,0.00,Haskell-WGSend-v0.01,2013-03-03 06:05:00,
2013-03-03 00:10:00,30.5,24.8,30.18,NNW,339,2.0,-999.0,81,0.00,,,0.00,Haskell-WGSend-v0.01,2013-03-03 06:10:00,
2013-03-03 00:15:00,30.4,24.7,30.18,NW,324,6.0,-999.0,81,0.00,,,0.00,Haskell-WGSend-v0.01,2013-03-03 06:15:00,
2013-03-03 00:20:00,30.4,24.7,30.18,NW,308,8.0,-999.0,81,0.00,,,0.00,Haskell-WGSend-v0.01,2013-03-03 06:20:00,
2013-03-03 00:25:00,30.4,24.3,30.19,NW,307,4.0,-999.0,80,0.00,,,0.00,Haskell-WGSend-v0.01,2013-03-03 06:25:00,
2013-03-03 00:30:00,30.4,24.0,30.19,NNW,331,2.0,-999.0,79,0.00,,,0.00,Haskell-WGSend-v0.01,2013-03-03 06:30:00,
2013-03-03 00:35:00,30.4,24.0,30.18,NW,307,5.0,-999.0,79,0.00,,,0.00,Haskell-WGSend-v0.01,2013-03-03 06:35:00,
2013-03-03 00:40:00,30.4,23.7,30.18,NW,308,7.0,-999.0,78,0.00,,,0.00,Haskell-WGSend-v0.01,2013-03-03 06:40:00,
2013-03-03 00:45:00,30.4,23.7,30.18,NW,320,2.0,-999.0,78,0.00,,,0.00,Haskell-WGSend-v0.01,2013-03-03 06:45:00,
2013-03-03 00:50:00,30.4,23.7,30.19,WNW,296,4.0,-999.0,78,0.00,,,0.00,Haskell-WGSend-v0.01,2013-03-03 06:50:00,
2013-03-03 00:55:00,30.4,23.7,30.19,NNW,342,5.0,-999.0,78,0.00,,,0.00,Haskell-WGSend-v0.01,2013-03-03 06:55:00,
2013-03-03 01:00:00,30.4,23.7,30.18,West,277,2.0,-999.0,78,0.00,,,0.00,Haskell-WGSend-v0.01,2013-03-03 07:00:00,
2013-03-03 01:05:00,30.3,23.9,30.19,NW,320,6.0,-999.0,79,0.00,,,0.00,Haskell-WGSend-v0.01,2013-03-03 07:05:00,
2013-03-03 01:10:00,30.3,23.6,30.19,North,360,7.0,-999.0,78,0.00,,,0.00,Haskell-WGSend-v0.01,2013-03-03 07:10:00,
2013-03-03 01:15:00,30.3,23.6,30.19,NW,323,6.0,-999.0,78,0.00,,,0.00,Haskell-WGSend-v0.01,2013-03-03 07:15:00,
2013-03-03 01:20:00,30.2,23.5,30.19,NW,308,5.0,-999.0,78,0.00,,,0.00,Haskell-WGSend-v0.01,2013-03-03 07:20:00,
2013-03-03 01:25:00,30.2,23.5,30.19,NNW,331,6.0,-999.0,78,0.00,,,0.00,Haskell-WGSend-v0.01,2013-03-03 07:25:00,
2013-03-03 01:30:00,30.1,23.7,30.18,NW,314,4.0,-999.0,79,0.00,,,0.00,Haskell-WGSend-v0.01,2013-03-03 07:30:00,
2013-03-03 01:35:00,30.1,23.4,30.18,NNW,340,5.0,-999.0,78,0.00,,,0.00,Haskell-WGSend-v0.01,2013-03-03 07:35:00,
2013-03-03 01:40:00,30.1,23.4,30.18,NNW,333,2.0,-999.0,78,0.00,,,0.00,Haskell-WGSend-v0.01,2013-03-03 07:40:00,
2013-03-03 01:45:00,30.0,23.3,30.18,North,355,8.0,-999.0,78,0.00,,,0.00,Haskell-WGSend-v0.01,2013-03-03 07:45:00,
2013-03-03 01:50:00,30.0,23.3,30.18,NW,315,7.0,-999.0,78,0.00,,,0.00,Haskell-WGSend-v0.01,2013-03-03 07:50:00,
2013-03-03 01:55:00,29.9,23.2,30.18,NW,323,2.0,-999.0,78,0.00,,,0.00,Haskell-WGSend-v0.01,2013-03-03 07:55:00,
2013-03-03 02:00:00,29.9,23.2,30.18,NNW,329,6.0,-999.0,78,0.00,,,0.00,Haskell-WGSend-v0.01,2013-03-03 08:00:00,
2013-03-03 02:05:00,29.9,23.5,30.17,West,279,6.0,-999.0,79,0.00,,,0.00,Haskell-WGSend-v0.01,2013-03-03 08:05:00,
2013-03-03 02:10:00,29.8,23.4,30.17,NNW,343,2.0,-999.0,79,0.00,,,0.00,Haskell-WGSend-v0.01,2013-03-03 08:10:00,
2013-03-03 02:15:00,29.8,23.4,30.17,WNW,290,7.0,-999.0,79,0.00,,,0.00,Haskell-WGSend-v0.01,2013-03-03 08:15:00,
2013-03-03 02:20:00,29.7,23.3,30.17,NNW,327,6.0,-999.0,79,0.00,,,0.00,Haskell-WGSend-v0.01,2013-03-03 08:20:00,
2013-03-03 02:25:00,29.7,23.7,30.17,NW,308,4.0,-999.0,80,0.00,,,0.00,Haskell-WGSend-v0.01,2013-03-03 08:25:00,
2013-03-03 02:30:00,29.7,23.3,30.17,WNW,290,2.0,-999.0,79,0.00,,,0.00,Haskell-WGSend-v0.01,2013-03-03 08:30:00,
2013-03-03 02:35:00,29.6,23.2,30.17,NW,308,7.0,-999.0,79,0.00,,,0.00,Haskell-WGSend-v0.01,2013-03-03 08:35:00,
2013-03-03 02:40:00,29.6,23.6,30.17,NNW,345,2.0,-999.0,80,0.00,,,0.00,Haskell-WGSend-v0.01,2013-03-03 08:40:00,
2013-03-03 02:45:00,29.5,23.1,30.17,NNW,344,4.0,-999.0,79,0.00,,,0.00,Haskell-WGSend-v0.01,2013-03-03 08:45:00,
2013-03-03 02:55:00,29.4,23.4,30.16,NW,304,5.0,-999.0,80,0.00,,,0.00,Haskell-WGSend-v0.01,2013-03-03 08:55:00,
2013-03-03 03:00:00,29.3,23.3,30.16,NW,314,1.0,-999.0,80,0.00,,,0.00,Haskell-WGSend-v0.01,2013-03-03 09:00:00,
2013-03-03 03:05:00,29.3,23.3,30.16,NNW,327,8.0,-999.0,80,0.00,,,0.00,Haskell-WGSend-v0.01,2013-03-03 09:05:00,
2013-03-03 03:10:00,29.2,23.2,30.16,WNW,300,2.0,-999.0,80,0.00,,,0.00,Haskell-WGSend-v0.01,2013-03-03 09:10:00,
2013-03-03 03:15:00,29.2,23.2,30.16,NW,305,4.0,-999.0,80,0.00,,,0.00,Haskell-WGSend-v0.01,2013-03-03 09:15:00,
2013-03-03 03:20:00,29.1,22.7,30.16,NNW,338,4.0,-999.0,79,0.00,,,0.00,Haskell-WGSend-v0.01,2013-03-03 09:20:00,
2013-03-03 03:25:00,29.0,22.6,30.16,NW,320,4.0,-999.0,79,0.00,,,0.00,Haskell-WGSend-v0.01,2013-03-03 09:25:00,
2013-03-03 03:30:00,29.0,22.6,30.16,NNW,342,7.0,-999.0,79,0.00,,,0.00,Haskell-WGSend-v0.01,2013-03-03 09:30:00,
2013-03-03 03:35:00,29.0,22.6,30.16,NW,317,2.0,-999.0,79,0.00,,,0.00,Haskell-WGSend-v0.01,2013-03-03 09:35:00,
2013-03-03 03:40:00,28.9,22.2,30.16,NW,317,5.0,-999.0,78,0.00,,,0.00,Haskell-WGSend-v0.01,2013-03-03 09:40:00,
2013-03-03 03:45:00,28.9,22.2,30.16,NW,309,2.0,-999.0,78,0.00,,,0.00,Haskell-WGSend-v0.01,2013-03-03 09:45:00,
2013-03-03 03:50:00,28.9,22.2,30.16,NW,315,4.0,-999.0,78,0.00,,,0.00,Haskell-WGSend-v0.01,2013-03-03 09:50:00,
2013-03-03 03:55:00,28.9,22.2,30.16,NW,315,4.0,-999.0,78,0.00,,,0.00,Haskell-WGSend-v0.01,2013-03-03 09:55:00,
2013-03-03 04:00:00,28.9,22.2,30.17,NW,314,1.0,-999.0,78,0.00,,,0.00,Haskell-WGSend-v0.01,2013-03-03 10:00:00,
2013-03-03 04:05:00,28.9,22.2,30.17,NW,313,4.0,-999.0,78,0.00,,,0.00,Haskell-WGSend-v0.01,2013-03-03 10:05:00,
2013-03-03 04:10:00,28.9,22.2,30.17,NW,319,2.0,-999.0,78,0.00,,,0.00,Haskell-WGSend-v0.01,2013-03-03 10:10:00,
2013-03-03 04:15:00,28.8,22.1,30.16,NW,317,2.0,-999.0,78,0.00,,,0.00,Haskell-WGSend-v0.01,2013-03-03 10:15:00,
2013-03-03 04:20:00,28.8,22.1,30.17,NW,317,4.0,-999.0,78,0.00,,,0.00,Haskell-WGSend-v0.01,2013-03-03 10:20:00,
2013-03-03 04:25:00,28.8,22.1,30.17,NNW,328,7.0,-999.0,78,0.00,,,0.00,Haskell-WGSend-v0.01,2013-03-03 10:25:00,
2013-03-03 04:30:00,28.8,22.1,30.17,NW,325,2.0,-999.0,78,0.00,,,0.00,Haskell-WGSend-v0.01,2013-03-03 10:30:00,
2013-03-03 04:35:00,28.8,22.1,30.17,NW,323,6.0,-999.0,78,0.00,,,0.00,Haskell-WGSend-v0.01,2013-03-03 10:35:00,
2013-03-03 04:45:00,28.8,22.1,30.17,NW,323,7.0,-999.0,78,0.00,,,0.00,Haskell-WGSend-v0.01,2013-03-03 10:45:00,
2013-03-03 04:50:00,28.8,22.1,30.17,NW,313,2.0,-999.0,78,0.00,,,0.00,Haskell-WGSend-v0.01,2013-03-03 10:50:00,
2013-03-03 04:55:00,28.7,22.0,30.17,NNW,342,2.0,-999.0,78,0.00,,,0.00,Haskell-WGSend-v0.01,2013-03-03 10:55:00,
2013-03-03 05:00:00,28.7,21.7,30.17,NW,314,5.0,-999.0,77,0.00,,,0.00,Haskell-WGSend-v0.01,2013-03-03 11:00:00,
2013-03-03 05:05:00,28.6,21.9,30.17,NNW,329,4.0,-999.0,78,0.00,,,0.00,Haskell-WGSend-v0.01,2013-03-03 11:05:00,
2013-03-03 05:10:00,28.5,21.8,30.17,NNW,329,6.0,-999.0,78,0.00,,,0.00,Haskell-WGSend-v0.01,2013-03-03 11:10:00,
2013-03-03 05:15:00,28.3,21.6,30.17,NW,306,2.0,-999.0,78,0.00,,,0.00,Haskell-WGSend-v0.01,2013-03-03 11:15:00,
2013-03-03 05:20:00,28.3,21.6,30.18,NNW,339,4.0,-999.0,78,0.00,,,0.00,Haskell-WGSend-v0.01,2013-03-03 11:20:00,
2013-03-03 05:25:00,28.1,21.8,30.18,NNW,346,7.0,-999.0,79,0.00,,,0.00,Haskell-WGSend-v0.01,2013-03-03 11:25:00,
2013-03-03 05:30:00,28.0,21.7,30.18,NNW,333,5.0,-999.0,79,0.00,,,0.00,Haskell-WGSend-v0.01,2013-03-03 11:30:00,
2013-03-03 05:35:00,27.9,21.6,30.18,NW,324,4.0,-999.0,79,0.00,,,0.00,Haskell-WGSend-v0.01,2013-03-03 11:35:00,
2013-03-03 05:40:00,27.9,21.6,30.18,WNW,297,8.0,-999.0,79,0.00,,,0.00,Haskell-WGSend-v0.01,2013-03-03 11:40:00,
2013-03-03 05:45:00,27.7,21.4,30.18,NW,316,5.0,-999.0,79,0.00,,,0.00,Haskell-WGSend-v0.01,2013-03-03 11:45:00,
2013-03-03 05:50:00,27.6,21.3,30.18,NW,309,4.0,-999.0,79,0.00,,,0.00,Haskell-WGSend-v0.01,2013-03-03 11:50:00,
2013-03-03 05:55:00,27.5,21.2,30.18,NW,319,0.0,-999.0,79,0.00,,,0.00,Haskell-WGSend-v0.01,2013-03-03 11:55:00,
2013-03-03 06:00:00,27.4,21.4,30.18,NW,318,5.0,-999.0,80,0.00,,,0.00,Haskell-WGSend-v0.01,2013-03-03 12:00:00,
2013-03-03 06:05:00,27.3,21.0,30.18,NW,319,0.0,-999.0,79,0.00,,,0.00,Haskell-WGSend-v0.01,2013-03-03 12:05:00,
2013-03-03 06:10:00,27.2,21.2,30.18,NW,319,4.0,-999.0,80,0.00,,,0.00,Haskell-WGSend-v0.01,2013-03-03 12:10:00,
2013-03-03 06:15:00,27.0,21.0,30.18,NW,319,1.0,-999.0,80,0.00,,,0.00,Haskell-WGSend-v0.01,2013-03-03 12:15:00,
2013-03-03 06:20:00,26.8,20.8,30.18,NW,319,4.0,-999.0,80,0.00,,,0.00,Haskell-WGSend-v0.01,2013-03-03 12:20:00,
2013-03-03 06:25:00,26.7,21.1,30.18,NW,319,2.0,-999.0,81,0.00,,,0.00,Haskell-WGSend-v0.01,2013-03-03 12:25:00,
2013-03-03 06:30:00,26.6,21.0,30.18,NW,306,1.0,-999.0,81,0.00,,,0.00,Haskell-WGSend-v0.01,2013-03-03 12:30:00,
2013-03-03 06:35:00,26.5,20.9,30.19,NW,309,2.0,-999.0,81,0.00,,,0.00,Haskell-WGSend-v0.01,2013-03-03 12:35:00,
2013-03-03 06:40:00,26.5,20.9,30.19,WNW,290,1.0,-999.0,81,0.00,,,0.00,Haskell-WGSend-v0.01,2013-03-03 12:40:00,
2013-03-03 06:45:00,26.5,20.9,30.19,West,280,0.0,-999.0,81,0.00,,,0.00,Haskell-WGSend-v0.01,2013-03-03 12:45:00,
2013-03-03 06:50:00,26.4,21.1,30.19,WNW,300,4.0,-999.0,82,0.00,,,0.00,Haskell-WGSend-v0.01,2013-03-03 12:50:00,
2013-03-03 06:55:00,26.5,21.2,30.19,NW,308,4.0,-999.0,82,0.00,,,0.00,Haskell-WGSend-v0.01,2013-03-03 12:55:00,
2013-03-03 07:00:00,26.7,21.4,30.19,West,268,2.0,-999.0,82,0.00,,,0.00,Haskell-WGSend-v0.01,2013-03-03 13:00:00,
2013-03-03 07:05:00,26.9,21.3,30.19,West,264,2.0,-999.0,81,0.00,,,0.00,Haskell-WGSend-v0.01,2013-03-03 13:05:00,
2013-03-03 07:15:00,27.4,21.4,30.20,NW,319,6.0,-999.0,80,0.00,,,0.00,Haskell-WGSend-v0.01,2013-03-03 13:15:00,
2013-03-03 07:20:00,27.7,21.4,30.20,WNW,302,6.0,-999.0,79,0.00,,,0.00,Haskell-WGSend-v0.01,2013-03-03 13:20:00,
2013-03-03 07:25:00,28.0,21.3,30.20,NNW,346,5.0,-999.0,78,0.00,,,0.00,Haskell-WGSend-v0.01,2013-03-03 13:25:00,
2013-03-03 07:30:00,28.4,21.7,30.20,NNW,336,8.0,-999.0,78,0.00,,,0.00,Haskell-WGSend-v0.01,2013-03-03 13:30:00,
2013-03-03 07:35:00,28.8,21.8,30.20,NNW,328,5.0,-999.0,77,0.00,,,0.00,Haskell-WGSend-v0.01,2013-03-03 13:35:00,
2013-03-03 07:40:00,29.2,21.8,30.20,NNW,336,2.0,-999.0,76,0.00,,,0.00,Haskell-WGSend-v0.01,2013-03-03 13:40:00,
2013-03-03 07:45:00,29.4,21.3,30.20,NW,326,6.0,-999.0,74,0.00,,,0.00,Haskell-WGSend-v0.01,2013-03-03 13:45:00,
2013-03-03 07:50:00,29.6,21.5,30.21,North,351,7.0,-999.0,74,0.00,,,0.00,Haskell-WGSend-v0.01,2013-03-03 13:50:00,
2013-03-03 07:55:00,29.8,21.3,30.20,NNW,336,5.0,-999.0,73,0.00,,,0.00,Haskell-WGSend-v0.01,2013-03-03 13:55:00,
2013-03-03 08:00:00,30.0,21.2,30.21,WNW,300,7.0,-999.0,72,0.00,,,0.00,Haskell-WGSend-v0.01,2013-03-03 14:00:00,
2013-03-03 08:05:00,30.2,20.6,30.21,NNW,331,8.0,-999.0,70,0.00,,,0.00,Haskell-WGSend-v0.01,2013-03-03 14:05:00,
2013-03-03 08:15:00,30.4,20.0,30.20,NW,313,4.0,-999.0,68,0.00,,,0.00,Haskell-WGSend-v0.01,2013-03-03 14:15:00,
2013-03-03 08:20:00,30.5,20.5,30.21,West,277,6.0,-999.0,69,0.00,,,0.00,Haskell-WGSend-v0.01,2013-03-03 14:20:00,
2013-03-03 08:25:00,30.7,20.3,30.21,NW,317,8.0,-999.0,68,0.00,,,0.00,Haskell-WGSend-v0.01,2013-03-03 14:25:00,
2013-03-03 08:35:00,31.3,19.3,30.21,West,280,5.0,-999.0,64,0.00,,,0.00,Haskell-WGSend-v0.01,2013-03-03 14:35:00,
2013-03-03 08:40:00,31.4,19.4,30.21,WNW,286,4.0,-999.0,64,0.00,,,0.00,Haskell-WGSend-v0.01,2013-03-03 14:40:00,
2013-03-03 08:45:00,31.6,19.6,30.21,WNW,285,7.0,-999.0,64,0.00,,,0.00,Haskell-WGSend-v0.01,2013-03-03 14:45:00,
2013-03-03 08:50:00,31.6,19.2,30.21,NNW,344,2.0,-999.0,63,0.00,,,0.00,Haskell-WGSend-v0.01,2013-03-03 14:50:00,
2013-03-03 08:55:00,31.6,19.2,30.21,WNW,303,1.0,-999.0,63,0.00,,,0.00,Haskell-WGSend-v0.01,2013-03-03 14:55:00,
2013-03-03 09:00:00,31.8,18.5,30.21,NW,324,9.0,-999.0,61,0.00,,,0.00,Haskell-WGSend-v0.01,2013-03-03 15:00:00,
2013-03-03 09:05:00,31.9,19.0,30.21,West,280,1.0,-999.0,62,0.00,,,0.00,Haskell-WGSend-v0.01,2013-03-03 15:05:00,
2013-03-03 09:10:00,32.2,19.9,30.21,NW,323,2.0,-999.0,60,0.00,,,0.00,Haskell-WGSend-v0.01,2013-03-03 15:10:00,
2013-03-03 09:15:00,32.1,19.8,30.21,WNW,284,5.0,-999.0,60,0.00,,,0.00,Haskell-WGSend-v0.01,2013-03-03 15:15:00,
2013-03-03 09:20:00,32.7,20.4,30.21,West,265,8.0,-999.0,60,0.00,,,0.00,Haskell-WGSend-v0.01,2013-03-03 15:20:00,
2013-03-03 09:25:00,33.0,21.1,30.21,West,265,1.0,-999.0,61,0.00,,,0.00,Haskell-WGSend-v0.01,2013-03-03 15:25:00,
2013-03-03 09:30:00,33.3,20.6,30.21,West,261,3.0,-999.0,59,0.00,,,0.00,Haskell-WGSend-v0.01,2013-03-03 15:30:00,
2013-03-03 09:40:00,32.8,19.3,30.21,NNW,332,5.0,-999.0,57,0.00,,,0.00,Haskell-WGSend-v0.01,2013-03-03 15:40:00,
2013-03-03 09:45:00,33.2,18.8,30.21,NNW,344,7.0,-999.0,55,0.00,,,0.00,Haskell-WGSend-v0.01,2013-03-03 15:45:00,
2013-03-03 09:50:00,33.5,19.1,30.21,North,350,5.0,-999.0,55,0.00,,,0.00,Haskell-WGSend-v0.01,2013-03-03 15:50:00,
2013-03-03 09:55:00,33.8,19.8,30.21,West,261,10.0,-999.0,56,0.00,,,0.00,Haskell-WGSend-v0.01,2013-03-03 15:55:00,
2013-03-03 10:00:00,33.9,19.9,30.21,West,275,4.0,-999.0,56,0.00,,,0.00,Haskell-WGSend-v0.01,2013-03-03 16:00:00,
2013-03-03 10:05:00,34.1,19.7,30.21,West,279,4.0,-999.0,55,0.00,,,0.00,Haskell-WGSend-v0.01,2013-03-03 16:05:00,
2013-03-03 10:10:00,34.5,20.0,30.21,NW,311,12.0,-999.0,55,0.00,,,0.00,Haskell-WGSend-v0.01,2013-03-03 16:10:00,
2013-03-03 10:15:00,34.3,19.4,30.21,WNW,302,4.0,-999.0,54,0.00,,,0.00,Haskell-WGSend-v0.01,2013-03-03 16:15:00,
2013-03-03 10:20:00,34.5,19.6,30.21,West,271,7.0,-999.0,54,0.00,,,0.00,Haskell-WGSend-v0.01,2013-03-03 16:20:00,
2013-03-03 10:25:00,34.8,20.3,30.20,West,264,7.0,-999.0,55,0.00,,,0.00,Haskell-WGSend-v0.01,2013-03-03 16:25:00,
2013-03-03 10:30:00,35.3,20.8,30.21,WNW,289,2.0,-999.0,55,0.00,,,0.00,Haskell-WGSend-v0.01,2013-03-03 16:30:00,
2013-03-03 10:35:00,35.6,19.8,30.21,WNW,298,11.0,-999.0,52,0.00,,,0.00,Haskell-WGSend-v0.01,2013-03-03 16:35:00,
2013-03-03 10:40:00,35.3,19.9,30.21,West,280,6.0,-999.0,53,0.00,,,0.00,Haskell-WGSend-v0.01,2013-03-03 16:40:00,
2013-03-03 10:45:00,35.2,20.3,30.21,NW,312,12.0,-999.0,54,0.00,,,0.00,Haskell-WGSend-v0.01,2013-03-03 16:45:00,
2013-03-03 10:50:00,35.3,20.8,30.21,WSW,249,6.0,-999.0,55,0.00,,,0.00,Haskell-WGSend-v0.01,2013-03-03 16:50:00,
2013-03-03 10:55:00,35.7,20.7,30.21,West,269,4.0,-999.0,54,0.00,,,0.00,Haskell-WGSend-v0.01,2013-03-03 16:55:00,
2013-03-03 11:00:00,35.9,21.4,30.20,NW,324,4.0,-999.0,55,0.00,,,0.00,Haskell-WGSend-v0.01,2013-03-03 17:00:00,
2013-03-03 11:05:00,36.3,20.9,30.20,North,350,11.0,-999.0,53,0.00,,,0.00,Haskell-WGSend-v0.01,2013-03-03 17:05:00,
2013-03-03 11:10:00,36.3,20.4,30.21,NNW,348,9.0,-999.0,52,0.00,,,0.00,Haskell-WGSend-v0.01,2013-03-03 17:10:00,
2013-03-03 11:15:00,36.5,20.1,30.20,West,261,12.0,-999.0,51,0.00,,,0.00,Haskell-WGSend-v0.01,2013-03-03 17:15:00,
2013-03-03 11:20:00,37.1,20.2,30.20,North,9,7.0,-999.0,50,0.00,,,0.00,Haskell-WGSend-v0.01,2013-03-03 17:20:00,
2013-03-03 11:25:00,37.5,20.1,30.20,NE,34,3.0,-999.0,49,0.00,,,0.00,Haskell-WGSend-v0.01,2013-03-03 17:25:00,
2013-03-03 11:30:00,37.8,19.9,30.19,NW,323,4.0,-999.0,48,0.00,,,0.00,Haskell-WGSend-v0.01,2013-03-03 17:30:00,
2013-03-03 11:35:00,38.1,21.2,30.20,North,350,6.0,-999.0,50,0.00,,,0.00,Haskell-WGSend-v0.01,2013-03-03 17:35:00,
2013-03-03 11:45:00,38.5,20.1,30.19,North,350,0.0,-999.0,47,0.00,,,0.00,Haskell-WGSend-v0.01,2013-03-03 17:45:00,
2013-03-03 11:50:00,38.8,20.3,30.19,WNW,296,6.0,-999.0,47,0.00,,,0.00,Haskell-WGSend-v0.01,2013-03-03 17:50:00,
2013-03-03 11:55:00,38.9,20.9,30.19,WNW,290,1.0,-999.0,48,0.00,,,0.00,Haskell-WGSend-v0.01,2013-03-03 17:55:00,
2013-03-03 12:00:00,38.8,20.8,30.18,NNW,327,4.0,-999.0,48,0.00,,,0.00,Haskell-WGSend-v0.01,2013-03-03 18:00:00,
2013-03-03 12:05:00,39.1,19.6,30.18,NNW,339,8.0,-999.0,45,0.00,,,0.00,Haskell-WGSend-v0.01,2013-03-03 18:05:00,
2013-03-03 12:10:00,38.8,19.8,30.18,NW,322,8.0,-999.0,46,0.00,,,0.00,Haskell-WGSend-v0.01,2013-03-03 18:10:00,
2013-03-03 12:15:00,39.0,19.5,30.18,West,267,5.0,-999.0,45,0.00,,,0.00,Haskell-WGSend-v0.01,2013-03-03 18:15:00,
2013-03-03 12:20:00,39.1,20.6,30.18,West,270,9.0,-999.0,47,0.00,,,0.00,Haskell-WGSend-v0.01,2013-03-03 18:20:00,
2013-03-03 12:25:00,39.5,20.5,30.18,WSW,252,4.0,-999.0,46,0.00,,,0.00,Haskell-WGSend-v0.01,2013-03-03 18:25:00,
2013-03-03 12:30:00,39.7,19.6,30.18,NNW,334,6.0,-999.0,44,0.00,,,0.00,Haskell-WGSend-v0.01,2013-03-03 18:30:00,
2013-03-03 12:35:00,39.9,20.3,30.18,WNW,283,4.0,-999.0,45,0.00,,,0.00,Haskell-WGSend-v0.01,2013-03-03 18:35:00,
2013-03-03 12:40:00,40.2,21.1,30.17,West,261,6.0,-999.0,46,0.00,,,0.00,Haskell-WGSend-v0.01,2013-03-03 18:40:00,
2013-03-03 12:45:00,40.7,22.1,30.17,NNW,346,7.0,-999.0,47,0.00,,,0.00,Haskell-WGSend-v0.01,2013-03-03 18:45:00,
2013-03-03 12:50:00,41.1,19.8,30.17,NNW,348,0.0,-999.0,42,0.00,,,0.00,Haskell-WGSend-v0.01,2013-03-03 18:50:00,
2013-03-03 12:55:00,41.6,20.8,30.17,West,263,5.0,-999.0,43,0.00,,,0.00,Haskell-WGSend-v0.01,2013-03-03 18:55:00,
2013-03-03 13:00:00,41.6,20.3,30.16,WSW,248,5.0,-999.0,42,0.00,,,0.00,Haskell-WGSend-v0.01,2013-03-03 19:00:00,
2013-03-03 13:05:00,41.6,20.3,30.16,West,281,8.0,-999.0,42,0.00,,,0.00,Haskell-WGSend-v0.01,2013-03-03 19:05:00,
2013-03-03 13:10:00,41.9,20.5,30.16,WNW,287,9.0,-999.0,42,0.00,,,0.00,Haskell-WGSend-v0.01,2013-03-03 19:10:00,
2013-03-03 13:15:00,41.9,20.0,30.16,NW,304,5.0,-999.0,41,0.00,,,0.00,Haskell-WGSend-v0.01,2013-03-03 19:15:00,
2013-03-03 13:20:00,42.1,20.7,30.16,West,275,7.0,-999.0,42,0.00,,,0.00,Haskell-WGSend-v0.01,2013-03-03 19:20:00,
2013-03-03 13:25:00,42.4,19.8,30.15,West,269,4.0,-999.0,40,0.00,,,0.00,Haskell-WGSend-v0.01,2013-03-03 19:25:00,
2013-03-03 13:30:00,42.5,19.3,30.15,WNW,287,1.0,-999.0,39,0.00,,,0.00,Haskell-WGSend-v0.01,2013-03-03 19:30:00,
2013-03-03 13:35:00,42.3,19.2,30.15,West,275,11.0,-999.0,39,0.00,,,0.00,Haskell-WGSend-v0.01,2013-03-03 19:35:00,
2013-03-03 13:40:00,42.4,19.3,30.15,North,355,6.0,-999.0,39,0.00,,,0.00,Haskell-WGSend-v0.01,2013-03-03 19:40:00,
2013-03-03 13:45:00,42.5,19.3,30.15,NW,309,4.0,-999.0,39,0.00,,,0.00,Haskell-WGSend-v0.01,2013-03-03 19:45:00,
2013-03-03 13:50:00,42.5,19.9,30.14,NNW,344,4.0,-999.0,40,0.00,,,0.00,Haskell-WGSend-v0.01,2013-03-03 19:50:00,
2013-03-03 13:55:00,42.8,19.0,30.15,NW,311,7.0,-999.0,38,0.00,,,0.00,Haskell-WGSend-v0.01,2013-03-03 19:55:00,
2013-03-03 14:00:00,42.8,18.4,30.15,WNW,287,1.0,-999.0,37,0.00,,,0.00,Haskell-WGSend-v0.01,2013-03-03 20:00:00,
2013-03-03 14:05:00,42.9,19.1,30.15,NW,306,6.0,-999.0,38,0.00,,,0.00,Haskell-WGSend-v0.01,2013-03-03 20:05:00,
2013-03-03 14:10:00,42.8,18.4,30.15,NNW,331,4.0,-999.0,37,0.00,,,0.00,Haskell-WGSend-v0.01,2013-03-03 20:10:00,
2013-03-03 14:15:00,42.8,18.4,30.15,NW,320,9.0,-999.0,37,0.00,,,0.00,Haskell-WGSend-v0.01,2013-03-03 20:15:00,
2013-03-03 14:20:00,43.2,19.4,30.15,NNW,342,7.0,-999.0,38,0.00,,,0.00,Haskell-WGSend-v0.01,2013-03-03 20:20:00,
2013-03-03 14:25:00,43.4,18.9,30.15,West,262,0.0,-999.0,37,0.00,,,0.00,Haskell-WGSend-v0.01,2013-03-03 20:25:00,
2013-03-03 14:30:00,43.9,20.0,30.15,West,264,0.0,-999.0,38,0.00,,,0.00,Haskell-WGSend-v0.01,2013-03-03 20:30:00,
2013-03-03 14:35:00,44.6,20.0,30.15,WSW,247,5.0,-999.0,37,0.00,,,0.00,Haskell-WGSend-v0.01,2013-03-03 20:35:00,
2013-03-03 14:40:00,44.8,19.5,30.15,North,5,6.0,-999.0,36,0.00,,,0.00,Haskell-WGSend-v0.01,2013-03-03 20:40:00,
2013-03-03 14:45:00,44.6,19.4,30.15,West,281,8.0,-999.0,36,0.00,,,0.00,Haskell-WGSend-v0.01,2013-03-03 20:45:00,
2013-03-03 14:50:00,44.6,19.4,30.15,West,271,6.0,-999.0,36,0.00,,,0.00,Haskell-WGSend-v0.01,2013-03-03 20:50:00,
2013-03-03 14:55:00,44.9,20.3,30.15,West,267,7.0,-999.0,37,0.00,,,0.00,Haskell-WGSend-v0.01,2013-03-03 20:55:00,
2013-03-03 15:00:00,44.9,19.0,30.15,WNW,302,0.0,-999.0,35,0.00,,,0.00,Haskell-WGSend-v0.01,2013-03-03 21:00:00,
2013-03-03 15:05:00,44.7,18.8,30.15,North,351,6.0,-999.0,35,0.00,,,0.00,Haskell-WGSend-v0.01,2013-03-03 21:05:00,
2013-03-03 15:10:00,44.7,18.8,30.15,NW,313,2.0,-999.0,35,0.00,,,0.00,Haskell-WGSend-v0.01,2013-03-03 21:10:00,
2013-03-03 15:15:00,44.9,18.3,30.14,WSW,253,3.0,-999.0,34,0.00,,,0.00,Haskell-WGSend-v0.01,2013-03-03 21:15:00,
2013-03-03 15:20:00,44.9,19.0,30.14,NNW,332,2.0,-999.0,35,0.00,,,0.00,Haskell-WGSend-v0.01,2013-03-03 21:20:00,
2013-03-03 15:25:00,45.1,19.1,30.14,WNW,284,4.0,-999.0,35,0.00,,,0.00,Haskell-WGSend-v0.01,2013-03-03 21:25:00,
2013-03-03 15:30:00,45.3,19.3,30.14,WNW,287,5.0,-999.0,35,0.00,,,0.00,Haskell-WGSend-v0.01,2013-03-03 21:30:00,
2013-03-03 15:35:00,45.4,18.7,30.14,WNW,294,4.0,-999.0,34,0.00,,,0.00,Haskell-WGSend-v0.01,2013-03-03 21:35:00,
2013-03-03 15:40:00,45.5,19.5,30.14,WNW,296,2.0,-999.0,35,0.00,,,0.00,Haskell-WGSend-v0.01,2013-03-03 21:40:00,
2013-03-03 15:45:00,45.8,18.4,30.14,West,262,1.0,-999.0,33,0.00,,,0.00,Haskell-WGSend-v0.01,2013-03-03 21:45:00,
2013-03-03 15:50:00,46.1,18.7,30.14,SW,231,5.0,-999.0,33,0.00,,,0.00,Haskell-WGSend-v0.01,2013-03-03 21:50:00,
2013-03-03 15:55:00,46.2,18.0,30.14,West,275,6.0,-999.0,32,0.00,,,0.00,Haskell-WGSend-v0.01,2013-03-03 21:55:00,
2013-03-03 16:00:00,46.0,18.6,30.14,West,259,4.0,-999.0,33,0.00,,,0.00,Haskell-WGSend-v0.01,2013-03-03 22:00:00,
2013-03-03 16:05:00,45.3,17.2,30.14,NW,310,6.0,-999.0,32,0.00,,,0.00,Haskell-WGSend-v0.01,2013-03-03 22:05:00,
2013-03-03 16:10:00,44.7,17.4,30.14,NW,313,7.0,-999.0,33,0.00,,,0.00,Haskell-WGSend-v0.01,2013-03-03 22:10:00,
2013-03-03 16:15:00,44.5,17.9,30.14,NNW,347,7.0,-999.0,34,0.00,,,0.00,Haskell-WGSend-v0.01,2013-03-03 22:15:00,
2013-03-03 16:20:00,44.4,17.9,30.14,NNW,334,6.0,-999.0,34,0.00,,,0.00,Haskell-WGSend-v0.01,2013-03-03 22:20:00,
2013-03-03 16:25:00,44.6,18.7,30.14,North,360,3.0,-999.0,35,0.00,,,0.00,Haskell-WGSend-v0.01,2013-03-03 22:25:00,
2013-03-03 16:30:00,44.8,18.2,30.14,West,276,5.0,-999.0,34,0.00,,,0.00,Haskell-WGSend-v0.01,2013-03-03 22:30:00,
2013-03-03 16:35:00,44.9,18.3,30.14,West,273,4.0,-999.0,34,0.00,,,0.00,Haskell-WGSend-v0.01,2013-03-03 22:35:00,
2013-03-03 16:40:00,45.1,18.5,30.14,NW,325,5.0,-999.0,34,0.00,,,0.00,Haskell-WGSend-v0.01,2013-03-03 22:40:00,
2013-03-03 16:45:00,45.0,18.4,30.14,NNW,337,2.0,-999.0,34,0.00,,,0.00,Haskell-WGSend-v0.01,2013-03-03 22:45:00,
2013-03-03 16:50:00,44.9,18.3,30.13,West,265,3.0,-999.0,34,0.00,,,0.00,Haskell-WGSend-v0.01,2013-03-03 22:50:00,
2013-03-03 16:55:00,44.9,18.3,30.13,West,269,2.0,-999.0,34,0.00,,,0.00,Haskell-WGSend-v0.01,2013-03-03 22:55:00,
2013-03-03 17:00:00,44.8,18.2,30.13,West,274,5.0,-999.0,34,0.00,,,0.00,Haskell-WGSend-v0.01,2013-03-03 23:00:00,
2013-03-03 17:05:00,44.5,17.9,30.13,WNW,286,1.0,-999.0,34,0.00,,,0.00,Haskell-WGSend-v0.01,2013-03-03 23:05:00,
2013-03-03 17:10:00,44.3,17.8,30.13,WNW,289,6.0,-999.0,34,0.00,,,0.00,Haskell-WGSend-v0.01,2013-03-03 23:10:00,
2013-03-03 17:15:00,44.2,17.7,30.13,WNW,287,0.0,-999.0,34,0.00,,,0.00,Haskell-WGSend-v0.01,2013-03-03 23:15:00,
2013-03-03 17:25:00,43.6,17.8,30.13,WNW,293,0.0,-999.0,35,0.00,,,0.00,Haskell-WGSend-v0.01,2013-03-03 23:25:00,
2013-03-03 17:35:00,42.8,17.8,30.13,WNW,300,4.0,-999.0,36,0.00,,,0.00,Haskell-WGSend-v0.01,2013-03-03 23:35:00,
2013-03-03 17:45:00,42.0,17.7,30.13,WNW,301,0.0,-999.0,37,0.00,,,0.00,Haskell-WGSend-v0.01,2013-03-03 23:45:00,
2013-03-03 17:50:00,41.6,17.9,30.13,WNW,301,0.0,-999.0,38,0.00,,,0.00,Haskell-WGSend-v0.01,2013-03-03 23:50:00,
2013-03-03 17:55:00,41.3,18.3,30.13,WNW,301,0.0,-999.0,39,0.00,,,0.00,Haskell-WGSend-v0.01,2013-03-03 23:55:00,
2013-03-03 18:00:00,40.9,18.5,30.13,WNW,301,0.0,-999.0,40,0.00,,,0.00,Haskell-WGSend-v0.01,2013-03-04 00:00:00,
2013-03-03 18:05:00,40.5,19.3,30.13,WNW,301,0.0,-999.0,42,0.00,,,0.00,Haskell-WGSend-v0.01,2013-03-04 00:05:00,
2013-03-03 18:15:00,39.4,20.4,30.13,WNW,301,0.0,-999.0,46,0.00,,,0.00,Haskell-WGSend-v0.01,2013-03-04 00:15:00,
2013-03-03 18:20:00,38.9,19.9,30.14,WNW,301,0.0,-999.0,46,0.00,,,0.00,Haskell-WGSend-v0.01,2013-03-04 00:20:00,
2013-03-03 18:25:00,38.4,20.5,30.14,WNW,301,0.0,-999.0,48,0.00,,,0.00,Haskell-WGSend-v0.01,2013-03-04 00:25:00,
2013-03-03 18:30:00,37.9,21.4,30.14,WNW,300,0.0,-999.0,51,0.00,,,0.00,Haskell-WGSend-v0.01,2013-03-04 00:30:00,
2013-03-03 18:35:00,37.3,20.4,30.14,WNW,301,0.0,-999.0,50,0.00,,,0.00,Haskell-WGSend-v0.01,2013-03-04 00:35:00,
2013-03-03 18:40:00,36.8,20.0,30.14,WNW,301,0.0,-999.0,50,0.00,,,0.00,Haskell-WGSend-v0.01,2013-03-04 00:40:00,
2013-03-03 18:45:00,36.3,20.4,30.14,WNW,301,0.0,-999.0,52,0.00,,,0.00,Haskell-WGSend-v0.01,2013-03-04 00:45:00,
2013-03-03 18:50:00,35.7,19.8,30.15,WNW,301,0.0,-999.0,52,0.00,,,0.00,Haskell-WGSend-v0.01,2013-03-04 00:50:00,
2013-03-03 18:55:00,35.3,19.9,30.15,WNW,301,0.0,-999.0,53,0.00,,,0.00,Haskell-WGSend-v0.01,2013-03-04 00:55:00,
2013-03-03 19:00:00,34.8,20.7,30.15,WNW,301,0.0,-999.0,56,0.00,,,0.00,Haskell-WGSend-v0.01,2013-03-04 01:00:00,
2013-03-03 19:05:00,34.4,21.2,30.15,WNW,300,0.0,-999.0,58,0.00,,,0.00,Haskell-WGSend-v0.01,2013-03-04 01:05:00,
2013-03-03 19:10:00,34.3,22.3,30.15,WNW,301,0.0,-999.0,61,0.00,,,0.00,Haskell-WGSend-v0.01,2013-03-04 01:10:00,
2013-03-03 19:15:00,34.1,21.7,30.15,WNW,301,0.0,-999.0,60,0.00,,,0.00,Haskell-WGSend-v0.01,2013-03-04 01:15:00,
2013-03-03 19:20:00,33.9,21.5,30.15,WNW,301,0.0,-999.0,60,0.00,,,0.00,Haskell-WGSend-v0.01,2013-03-04 01:20:00,
2013-03-03 19:25:00,33.6,21.2,30.15,WNW,300,0.0,-999.0,60,0.00,,,0.00,Haskell-WGSend-v0.01,2013-03-04 01:25:00,
2013-03-03 19:30:00,33.3,21.3,30.15,WNW,301,0.0,-999.0,61,0.00,,,0.00,Haskell-WGSend-v0.01,2013-03-04 01:30:00,
2013-03-03 19:35:00,33.0,21.1,30.15,WNW,300,0.0,-999.0,61,0.00,,,0.00,Haskell-WGSend-v0.01,2013-03-04 01:35:00,
2013-03-03 19:40:00,32.8,21.3,30.15,WNW,300,0.0,-999.0,62,0.00,,,0.00,Haskell-WGSend-v0.01,2013-03-04 01:40:00,
2013-03-03 19:45:00,32.5,21.3,30.15,WNW,300,0.0,-999.0,63,0.00,,,0.00,Haskell-WGSend-v0.01,2013-03-04 01:45:00,
2013-03-03 19:50:00,32.1,21.3,30.15,WNW,300,0.0,-999.0,64,0.00,,,0.00,Haskell-WGSend-v0.01,2013-03-04 01:50:00,
2013-03-03 19:55:00,31.8,19.4,30.15,WNW,300,0.0,-999.0,63,0.00,,,0.00,Haskell-WGSend-v0.01,2013-03-04 01:55:00,
2013-03-03 20:00:00,31.5,19.5,30.15,WNW,301,0.0,-999.0,64,0.00,,,0.00,Haskell-WGSend-v0.01,2013-03-04 02:00:00,
2013-03-03 20:05:00,31.2,20.4,30.15,WNW,301,0.0,-999.0,67,0.00,,,0.00,Haskell-WGSend-v0.01,2013-03-04 02:05:00,
2013-03-03 20:10:00,31.0,19.8,30.15,WNW,300,0.0,-999.0,66,0.00,,,0.00,Haskell-WGSend-v0.01,2013-03-04 02:10:00,
2013-03-03 20:15:00,30.9,19.7,30.15,WNW,301,0.0,-999.0,66,0.00,,,0.00,Haskell-WGSend-v0.01,2013-03-04 02:15:00,
2013-03-03 20:20:00,30.8,20.8,30.14,WNW,301,0.0,-999.0,69,0.00,,,0.00,Haskell-WGSend-v0.01,2013-03-04 02:20:00,
2013-03-03 20:25:00,30.9,21.6,30.14,WNW,301,0.0,-999.0,71,0.00,,,0.00,Haskell-WGSend-v0.01,2013-03-04 02:25:00,
2013-03-03 20:30:00,30.8,22.3,30.14,WNW,301,0.0,-999.0,73,0.00,,,0.00,Haskell-WGSend-v0.01,2013-03-04 02:30:00,
2013-03-03 20:35:00,30.9,22.7,30.14,WNW,300,0.0,-999.0,74,0.00,,,0.00,Haskell-WGSend-v0.01,2013-03-04 02:35:00,
2013-03-03 20:40:00,30.8,22.7,30.14,WNW,300,0.0,-999.0,74,0.00,,,0.00,Haskell-WGSend-v0.01,2013-03-04 02:40:00,
2013-03-03 20:45:00,30.7,22.6,30.14,WNW,301,0.0,-999.0,74,0.00,,,0.00,Haskell-WGSend-v0.01,2013-03-04 02:45:00,
2013-03-03 20:50:00,30.6,22.1,30.14,WNW,300,0.0,-999.0,73,0.00,,,0.00,Haskell-WGSend-v0.01,2013-03-04 02:50:00,
2013-03-03 20:55:00,30.4,22.3,30.14,WNW,301,0.0,-999.0,74,0.00,,,0.00,Haskell-WGSend-v0.01,2013-03-04 02:55:00,
2013-03-03 21:00:00,30.3,22.2,30.14,WNW,301,0.0,-999.0,74,0.00,,,0.00,Haskell-WGSend-v0.01,2013-03-04 03:00:00,
2013-03-03 21:05:00,30.3,22.5,30.14,WNW,300,0.0,-999.0,75,0.00,,,0.00,Haskell-WGSend-v0.01,2013-03-04 03:05:00,
2013-03-03 21:10:00,30.2,22.4,30.14,WNW,301,0.0,-999.0,75,0.00,,,0.00,Haskell-WGSend-v0.01,2013-03-04 03:10:00,
2013-03-03 21:15:00,30.1,22.7,30.14,WNW,300,0.0,-999.0,76,0.00,,,0.00,Haskell-WGSend-v0.01,2013-03-04 03:15:00,
2013-03-03 21:20:00,30.0,22.6,30.14,WNW,300,0.0,-999.0,76,0.00,,,0.00,Haskell-WGSend-v0.01,2013-03-04 03:20:00,
2013-03-03 21:25:00,29.9,22.5,30.14,WNW,301,0.0,-999.0,76,0.00,,,0.00,Haskell-WGSend-v0.01,2013-03-04 03:25:00,
2013-03-03 21:30:00,29.8,22.4,30.15,WNW,300,0.0,-999.0,76,0.00,,,0.00,Haskell-WGSend-v0.01,2013-03-04 03:30:00,
2013-03-03 21:35:00,29.7,22.3,30.15,WNW,300,0.0,-999.0,76,0.00,,,0.00,Haskell-WGSend-v0.01,2013-03-04 03:35:00,
2013-03-03 21:40:00,29.6,22.2,30.15,WNW,300,0.0,-999.0,76,0.00,,,0.00,Haskell-WGSend-v0.01,2013-03-04 03:40:00,
2013-03-03 21:45:00,29.6,22.2,30.15,WNW,301,0.0,-999.0,76,0.00,,,0.00,Haskell-WGSend-v0.01,2013-03-04 03:45:00,
2013-03-03 21:50:00,29.6,21.8,30.15,WNW,300,0.0,-999.0,75,0.00,,,0.00,Haskell-WGSend-v0.01,2013-03-04 03:50:00,
2013-03-03 21:55:00,29.5,21.8,30.15,WNW,300,0.0,-999.0,75,0.00,,,0.00,Haskell-WGSend-v0.01,2013-03-04 03:55:00,
2013-03-03 22:00:00,29.3,21.6,30.15,WNW,300,0.0,-999.0,75,0.00,,,0.00,Haskell-WGSend-v0.01,2013-03-04 04:00:00,
2013-03-03 22:05:00,29.1,21.0,30.15,WNW,301,0.0,-999.0,74,0.00,,,0.00,Haskell-WGSend-v0.01,2013-03-04 04:05:00,
2013-03-03 22:10:00,28.9,21.2,30.14,WNW,300,0.0,-999.0,75,0.00,,,0.00,Haskell-WGSend-v0.01,2013-03-04 04:10:00,
2013-03-03 22:15:00,28.8,21.8,30.15,WNW,300,0.0,-999.0,77,0.00,,,0.00,Haskell-WGSend-v0.01,2013-03-04 04:15:00,
2013-03-03 22:20:00,28.7,22.0,30.15,WNW,300,0.0,-999.0,78,0.00,,,0.00,Haskell-WGSend-v0.01,2013-03-04 04:20:00,
2013-03-03 22:25:00,28.6,21.9,30.15,WNW,300,0.0,-999.0,78,0.00,,,0.00,Haskell-WGSend-v0.01,2013-03-04 04:25:00,
2013-03-03 22:30:00,28.6,22.3,30.15,WNW,300,0.0,-999.0,79,0.00,,,0.00,Haskell-WGSend-v0.01,2013-03-04 04:30:00,
2013-03-03 22:36:00,28.6,21.9,30.15,WNW,300,0.0,-999.0,78,0.00,,,0.00,Haskell-WGSend-v0.01,2013-03-04 04:36:00,
2013-03-03 22:45:00,28.6,22.3,30.16,WNW,300,0.0,-999.0,79,0.00,,,0.00,Haskell-WGSend-v0.01,2013-03-04 04:45:00,
2013-03-03 22:50:00,28.5,22.5,30.15,WNW,300,0.0,-999.0,80,0.00,,,0.00,Haskell-WGSend-v0.01,2013-03-04 04:50:00,
2013-03-03 22:55:00,28.7,22.7,30.15,WNW,300,0.0,-999.0,80,0.00,,,0.00,Haskell-WGSend-v0.01,2013-03-04 04:55:00,
2013-03-03 23:00:00,28.9,23.2,30.15,WNW,300,0.0,-999.0,81,0.00,,,0.00,Haskell-WGSend-v0.01,2013-03-04 05:00:00,
2013-03-03 23:05:00,29.0,23.3,30.14,WNW,300,0.0,-999.0,81,0.00,,,0.00,Haskell-WGSend-v0.01,2013-03-04 05:05:00,
2013-03-03 23:10:00,29.0,23.3,30.15,WNW,300,0.0,-999.0,81,0.00,,,0.00,Haskell-WGSend-v0.01,2013-03-04 05:10:00,
2013-03-03 23:15:00,29.0,23.3,30.15,WNW,300,0.0,-999.0,81,0.00,,,0.00,Haskell-WGSend-v0.01,2013-03-04 05:15:00,
2013-03-03 23:20:00,29.0,23.0,30.15,WNW,300,0.0,-999.0,80,0.00,,,0.00,Haskell-WGSend-v0.01,2013-03-04 05:20:00,
2013-03-03 23:25:00,28.8,22.8,30.14,WNW,300,0.0,-999.0,80,0.00,,,0.00,Haskell-WGSend-v0.01,2013-03-04 05:25:00,
2013-03-03 23:30:00,28.6,22.6,30.14,WNW,301,0.0,-999.0,80,0.00,,,0.00,Haskell-WGSend-v0.01,2013-03-04 05:30:00,
2013-03-03 23:35:00,28.6,23.2,30.14,WNW,300,0.0,-999.0,82,0.00,,,0.00,Haskell-WGSend-v0.01,2013-03-04 05:35:00,
2013-03-03 23:40:00,28.7,23.7,30.14,WNW,300,0.0,-999.0,83,0.00,,,0.00,Haskell-WGSend-v0.01,2013-03-04 05:40:00,
2013-03-03 23:45:00,28.8,23.8,30.15,WNW,300,0.0,-999.0,83,0.00,,,0.00,Haskell-WGSend-v0.01,2013-03-04 05:45:00,
2013-03-03 23:50:00,28.9,23.5,30.15,WNW,300,0.0,-999.0,82,0.00,,,0.00,Haskell-WGSend-v0.01,2013-03-04 05:50:00,
2013-03-03 23:55:00,29.0,23.6,30.15,WNW,300,0.0,-999.0,82,0.00,,,0.00,Haskell-WGSend-v0.01,2013-03-04 05:55:00,